Location: Ellerstadt
(49.4644°N, 8.2615°E)
Time: 19:41:00
(UTC+00:00)

Vanguard 1 - Pass Details

Date: 13 June 2021
Orbit: 651 x 3832 km, 34.2° (Epoch: 27 July)

Event Time Altitude Azimuth Distance (km) Brightness Sun altitude
Rises 02:37:00 0° 265° (W) 6,297 13.7 -6.0°
Reaches altitude 10° 02:42:38 10° 255° (WSW) 4,685 13.0 -5.3°
Maximum altitude 02:51:32 25° 207° (SSW) 2,633 11.7 -4.3°
Drops below altitude 10° 02:57:21 10° 154° (SSE) 2,949 12.4 -3.6°
Sets 03:00:00 0° 140° (SE) 3,611 13.0 -3.3°
